Overview Statistics Trail Chart Weather Telemetry Raw packets
 

This is the latest recevied weather packets stored in our database for station/object EB1BWO-11. If no packets are shown the sender has not sent any weather packets the latest 10 day(s).

<< 7 8 9 10 11 12 13 >>
Time Temp. Humidity Pressure Rain* Wind** Luminosity Snow
1788426484 28.33° C 53% 1026.1 hPa - - - -
1788425584 27.78° C 54% 1026.2 hPa - - - -
1788424684 27.22° C 55% 1026.1 hPa - - - -
1788423783 26.11° C 58% 1026.1 hPa - - - -
1788422883 25° C 60% 1026.3 hPa - - - -
1788421983 23.33° C 61% 1026.2 hPa - - - -
1788421083 22.78° C 63% 1026.3 hPa - - - -
1788420183 21.67° C 65% 1026.3 hPa - - - -
1788419283 20.56° C 64% 1026.3 hPa - - - -
1788418383 19.44° C 67% 1026.3 hPa - - - -
1788417483 17.78° C 67% 1026.5 hPa - - - -
1788416582 17.22° C 65% 1026.6 hPa - - - -
1788415682 16.11° C 65% 1026.6 hPa - - - -
1788414782 15.56° C 66% 1026.6 hPa - - - -
1788413882 15.56° C 67% 1026.5 hPa - - - -
1788412982 15.56° C 67% 1026.4 hPa - - - -
1788412082 15.56° C 67% 1026.5 hPa - - - -
1788411182 16.11° C 66% 1026.4 hPa - - - -
1788410282 16.67° C 66% 1026.3 hPa - - - -
1788409381 16.11° C 67% 1026.2 hPa - - - -
1788408481 16.11° C 66% 1026.2 hPa - - - -
1788407581 16.11° C 66% 1026.5 hPa - - - -
1788406681 16.11° C 66% 1026.7 hPa - - - -
1788405781 16.67° C 67% 1026.7 hPa - - - -
1788404881 16.67° C 66% 1026.8 hPa - - - -

* Rain since midnight (hover to see other rain measurements)
** Current wind speed in m/s (hover to see current wind gust speed)